Airfield :
LOGIN :

Register | Disclaimer

   EN    FR    IT 

 










Legend :    VFR   Marginal VFR   IFR   Intensive IFR   Very Intensive IFR
Visi :
Ceiling :
>= 8 km
>= 3000ft
5 to 8 km
1000 to 3000 ft
1500m to 5 km
500 to 1000 ft
800 to 1500m
200 to 500 ft
< 800m
< 200 ft
Symbols :   Thunderstorms  Fog  Heavy snow  Heavy precipitations  Wind > 20 kt
SIGMETs :     Misc.  Thunderstorms  Icing  Turbulence  Mountain Waves  Volcanic Ashes







- Airport Elevation : 794 ft


LKCV - Čáslav Air Base

CURRENT METAR :
  • 200500Z 12002KT CAVOK 18/17 Q1016 NOSIG RMK BLU BLU

EXPIRED METARs :
  • 200400Z 09003KT CAVOK 16/15 Q1016 NOSIG RMK BLU BLU
  • 200300Z 09004KT CAVOK 17/15 Q1016 NOSIG RMK BLU BLU
  • 200200Z 16003KT CAVOK 17/16 Q1016 NOSIG RMK BLU BLU

TAF TAF LKCV
Valid from the 20 at 00:00 until the 21 at 00:00 UTC


192300Z 2000/2100 VRB02KT CAVOK
TEMPO 2000/2008 BKN035
PROB30
TEMPO 2002/2006 3000 BR BKN020
BECMG 2008/2010 24006KT
No reported NOTAMs for that airfield.



MET'MAP, your aeronautical weather chart ! - Copyright ORBIFLY December 2007 - Disclaimer

ORBIFLY MET'MAP TEAM :

Programming & Development : Alexandra Zaïnal
Concept & Development : Baudouin d'Aumeries
Co-Development & Prog : Marc-Olivier Méhu
Technical & hardware support : Manuel Goepfert

Contact : metmap@orbifly.com




SOURCES & CREDITS :

   NOAA